TITAN 3C TRANSTAGE DEB, 2789

Orbit data source: Space-Track

TITAN 3C TRANSTAGE DEB, 2789 is space debris in LEO originally from a launch on Fri, 15 Oct 1965 UTC launched from the Air Force Eastern Test Range (AFETR). Debris objects in space refer to the collection of defunct objects orbiting the Earth. Examples of debris include non-operational satellites, rocket bodies, and fragments generated from explosions, collisions, or faulty payload assembly.

Loading next visibility...
Identifier
2789, 1965-082KR
Orbit
LEO
Last TLE update
13 hours ago
Origin
Manufacturer
Unknown
Mission
Spacecraft
Bus & Motor
Unknown
Mass
Unknown
Launch date (UTC)
1965-10-15 (60 years ago)
Launch vehicle
Unknown
Launch site
Air Force Eastern Test Range (AFETR)
Object type
Payload
Rocket body
Debris
Shape & HBR
Unknown
Radar Cross Section
Small (<0.1 m²)

Expand to show TLE details & history

TLE from 13 hours ago
0 TITAN 3C TRANSTAGE DEB
1 02789U 65082KR  25182.64596299  .00035358  00000-0  14200-2 0  9998
2 02789  32.2687 170.4948 0033541 219.9906 139.8288 15.23311174 27872
Epoch: 2025-07-01T15:30Z
TLE epoch observation values (Epoch: 2025-07-01T15:30:11.202Z)
Latitude
0.00002°
Longitude
18.00973°
Altitude
512.133 km
Speed
7.6 km/s
True Right ascension
11h 21m 58s
True Declination
0° 00' 00"
Sunlit
Object was in daylight at epoch
Visualization orbit readout
Latitude
23.76474°
Longitude
150.53985°
Altitude
495.904 km
Speed
7.62 km/s
Apparent Right ascension
23h 25m 37s
Apparent Declination
-13° 21' 45"
Sunlit
Object is in full shadow
Visualization observer readout
Local Sidereal Time
16:21:03
Azimuth
90.226° ESE
Elevation
-20.84°
Doppler factor
1
Orbital elements
Apogee altitude
522.603 km
Perigee altitude
476.466 km
Semi-major axis
6,877.672 km
Eccentricity
0.00335
Inclination
32.2687°
RAAN
170.4948°
Arg. of periapsis
219.9906°
True anomaly
Unknown
Mean anomaly
139.8288°
Eccentric anomaly
Unknown
Mean motion
3.80523 °/min
Orbital period
94.61 mins
BSTAR
0.00142
Loading maneuver chart data...
Loading SW <> Apogee altitude chart data...

TITAN 3C TRANSTAGE DEB Visibility forecast

Observer location: undefined°, undefined°

Span
Click to sort rows by Start time (UTC) header in descending order
Start Az.
Max El. time (UTC)
Max El. Az.
Max El.
End time (UTC)
End Az.
5 mins2025-07-02 06:02:36.944Z235.136° WSW2025-07-02 06:05:36.944Z174.787° S22.364°2025-07-02 06:07:36.944Z137.991° SSE
4 mins2025-07-03 03:59:36.944Z207.883° SW2025-07-03 04:01:36.944Z163.69° S21.882°2025-07-03 04:03:36.944Z126.601° SE
|